Flag for U.S.A. Weather past 2 weeks in Columbia, South Carolina, U.S.A.

Now
55 °F

Fog.


Feels Like: 55 °F
Forecast: 57 / 83 °F
Wind: No wind

Location: Columbia Owens Downtown Airport

Current Time: May 4, 2015 at 8:08:03 AM

Latest Report: May 4, 2015 at 6:53 AM


Visibility: 6 mi

Pressure: 30.28 "Hg

Humidity: 90%

Dew point: 52 °F

Location of ColumbiaLocation

Historic Weather in Columbia — Graph

°F

Columbia temperature yesterday

Maximum temperature yesterday: 81 °F (at 2:53 PM)
Minimum temperature yesterday: 52 °F (at 5:53 AM)
Average temperature yesterday: 68 °F

Past Weeks' High & Low Weather Summary

 TemperatureHumidityPressure
High85 °F (Apr 26, 2:53 PM)94% (Apr 19, 9:53 PM)30.28 "Hg (Apr 19, 9:53 PM)
Low45 °F (Apr 24, 6:53 AM)18% (Apr 24, 2:53 PM)29.56 "Hg (Apr 26, 4:53 AM)
Average65 °F62%29.89 "Hg
* Reported Apr 19 6:53 AM — May 4 6:53 AM, Columbia, Weather by CustomWeather, © 2015

Note: Actual official high and low records may vary slightly from our data, if they occured in-between our weather recording intervals... More about our weather records

Advertising

Columbia weather history for previous 24 hours

 ConditionsComfort  
Time TempWeatherWind HumidityBarometerVisibility
6:53 AM
Mon, May 4
55 °FFog.No wind90%30.28 "Hg6 mi
5:53 AM56 °FClear.No wind90%30.25 "Hg8 mi
4:53 AM57 °FClear.No wind87%30.23 "Hg10 mi
3:53 AM58 °FClear.No wind84%30.22 "Hg10 mi
2:53 AM60 °FClear.No wind80%30.23 "Hg10 mi
1:53 AM63 °FClear.No wind73%30.23 "Hg10 mi
12:53 AM65 °FPassing clouds.No wind66%30.23 "Hg10 mi
11:53 PM
Sun, May 3
66 °FPassing clouds.5 mph63%30.22 "Hg10 mi
10:53 PM65 °FPassing clouds.No wind68%30.20 "Hg10 mi
9:53 PM67 °FClear.No wind63%30.18 "Hg10 mi
8:53 PM70 °FScattered clouds.No wind55%30.16 "Hg10 mi
7:53 PM77 °FSunny.No wind39%30.14 "Hg10 mi
6:53 PM79 °FPassing clouds.5 mph32%30.14 "Hg10 mi
5:53 PM79 °FScattered clouds.No wind32%30.14 "Hg10 mi
4:53 PM80 °FPassing clouds.3 mph31%30.14 "Hg10 mi
3:53 PM80 °FPassing clouds.3 mph31%30.15 "Hg10 mi
2:53 PM81 °FSunny.7 mph32%30.16 "Hg10 mi
1:53 PM80 °FSunny.No wind29%30.18 "Hg10 mi
12:53 PM78 °FSunny.No wind29%30.19 "Hg10 mi
11:53 AM77 °FSunny.6 mph29%30.20 "Hg10 mi
10:53 AM74 °FSunny.5 mph41%30.20 "Hg10 mi
9:53 AM70 °FSunny.No wind51%30.19 "Hg10 mi
8:53 AM64 °FSunny.No wind61%30.19 "Hg10 mi
Weather by CustomWeather, © 2015

See weather overviewHow to use our weather pages